ボアッティーニ彗星

398P/Boattini (2020)

English version
Home page
Updated on January 23, 2021

---------------------------------------------------------------------

・ プロフィール

符号 398P/2020 P2
検出日 2020年8月11日
検出光度 19.1等
検出者 N. Erasmus (Asteroid Terrestrial-Impact Last Alert System (ATLAS) search program)

・ 写真集

・ 軌道要素

Epoch 2020 Dec. 17.0 TT = JDT 2459200.5                                         
T 2020 Dec. 26.74631 TT                                 Rudenko                 
q   1.3056824            (2000.0)            P               Q                  
n   0.17815127     Peri.  320.23644     +0.03078618     -0.98795291             
a   3.1280722      Node   127.46310     +0.95877988     -0.01369236             
e   0.5825920      Incl.   11.01529     +0.28247718     +0.15414788             
P   5.53                                                                        
From 1477 observations 2009 Aug. 26-2020 Dec. 30, mean residual 0".9.           

・ 星図

・ 光度変化

        m1 = 12.0 + 5 logΔ + 20.0 log r

---------------------------------------------------------------------

軌道要素はM.P.E.C. 2021-A190に掲載されたものです。
星図はステラナビゲータ Ver.10 (アストロアーツ) で作成したものです。
光度グラフはComet for Windowsで作成したものです。

---------------------------------------------------------------------

Copyright(C) Seiichi Yoshida (comet@aerith.net). All rights reserved.